(11) Parthenope

Orbital Elements

The following orbital elements are taken from MPC 24085:
    (11) Parthenope
Epoch 2007 Oct. 27.0 TT = JDT 2454400.5  (M-c)          Bowell
M 281.83286              (2000.0)            P               Q
n   0.25659201     Peri.  195.12379     +0.77365362     +0.63020972
a   2.4526786      Node   125.62182     -0.57263625     +0.73972909
e   0.1001795      Incl.    4.62476     -0.27119697     +0.23587410
P   3.84           H    6.55          G   0.15
From 2613 observations at 61 oppositions, 1850-1993, mean residual 0".57.
An explanation of the orbital elements is available.

These orbital elements are also available in forms suitable for loading into a number of popular planetarium-type software programs.


Ephemeris

The following ephemeris is at intervals of five days. A daily ephemeris covering the same time interval is also available.

Personalized ephemerides for this object (and others) can be generated using the MPES.

Date    TT    R. A. (2000) Decl.     Delta      r     Elong.  Phase     V
 
2008 05 10    21 01.87   -15 04.9    1.898    2.242    96.1    26.6    10.9
2008 05 15    21 07.35   -14 46.6    1.837    2.239    99.5    26.4    10.8
2008 05 20    21 12.36   -14 30.3    1.778    2.236   103.1    26.1    10.7
2008 05 25    21 16.87   -14 16.3    1.719    2.233   106.8    25.7    10.6
2008 05 30    21 20.84   -14 05.1    1.662    2.231   110.6    25.2    10.6
2008 06 04    21 24.23   -13 56.9    1.606    2.228   114.6    24.5    10.5
2008 06 09    21 27.00   -13 52.3    1.552    2.226   118.7    23.6    10.4
2008 06 14    21 29.11   -13 51.4    1.501    2.224   123.0    22.5    10.2
2008 06 19    21 30.54   -13 54.6    1.452    2.222   127.5    21.3    10.1
2008 06 24    21 31.25   -14 02.0    1.406    2.220   132.1    19.9    10.0
2008 06 29    21 31.22   -14 13.9    1.364    2.218   137.0    18.2     9.9
2008 07 04    21 30.44   -14 30.2    1.325    2.216   142.0    16.4     9.8
2008 07 09    21 28.92   -14 50.9    1.291    2.215   147.2    14.4     9.6
2008 07 14    21 26.69   -15 15.5    1.261    2.213   152.6    12.2     9.5
2008 07 19    21 23.81   -15 43.6    1.236    2.212   158.2     9.8     9.4
2008 07 24    21 20.37   -16 14.4    1.217    2.211   163.9     7.3     9.2
2008 07 29    21 16.47   -16 47.3    1.204    2.210   169.7     4.7     9.1
2008 08 03    21 12.24   -17 21.2    1.196    2.210   175.5     2.1     8.9
2008 08 08    21 07.86   -17 55.1    1.195    2.209   177.9     1.0     8.8
2008 08 13    21 03.50   -18 27.8    1.200    2.208   172.3     3.5     9.0
2008 08 18    20 59.32   -18 58.6    1.211    2.208   166.4     6.2     9.2
2008 08 23    20 55.49   -19 26.6    1.228    2.208   160.6     8.7     9.3
2008 08 28    20 52.15   -19 51.3    1.251    2.208   154.9    11.2     9.4
2008 09 02    20 49.42   -20 12.2    1.279    2.208   149.4    13.5     9.6
2008 09 07    20 47.40   -20 29.1    1.312    2.208   144.0    15.5     9.7
2008 09 12    20 46.15   -20 41.9    1.350    2.209   138.8    17.5     9.8
2008 09 17    20 45.69   -20 50.5    1.391    2.209   133.8    19.2    10.0
2008 09 22    20 46.04   -20 55.1    1.436    2.210   129.0    20.7    10.1
2008 09 27    20 47.17   -20 55.8    1.485    2.211   124.4    22.0    10.2
2008 10 02    20 49.07   -20 52.7    1.536    2.212   119.9    23.1    10.3
2008 10 07    20 51.70   -20 45.9    1.590    2.213   115.6    24.0    10.4
2008 10 12    20 55.02   -20 35.7    1.645    2.215   111.5    24.8    10.5
2008 10 17    20 58.96   -20 22.1    1.703    2.216   107.5    25.4    10.6
2008 10 22    21 03.49   -20 05.4    1.762    2.218   103.6    25.9    10.7
2008 10 27    21 08.54   -19 45.5    1.822    2.220    99.9    26.2    10.8
2008 11 01    21 14.08   -19 22.6    1.883    2.222    96.2    26.4    10.9
2008 11 06    21 20.05   -18 56.9    1.944    2.224    92.7    26.4    10.9

Back to Bright Minor Planets

Astronomical Headlines Index

MPC